Tiempo cada hora Muradnagar

Hoy, 20 Octubre, Martes

Tiempo Temperatura Precipitaciones Viento Presión Humedad
00:00 +26°C° 0 mm 2 mps 735 mmHg 17%
01:00 +25°C° 0 mm 2 mps 735 mmHg 17%
02:00 +25°C° 0 mm 2 mps 735 mmHg 17%
03:00 +25°C° 0 mm 1 mps 735 mmHg 17%
04:00 +24°C° 0 mm 1 mps 735 mmHg 18%
05:00 +24°C° 0 mm 1 mps 735 mmHg 18%
06:00 +25°C° 0 mm 1 mps 736 mmHg 18%
07:00 +26°C° 0 mm 1 mps 736 mmHg 18%
08:00 +27°C° 0 mm 1 mps 737 mmHg 18%
09:00 +30°C° 0 mm 1 mps 737 mmHg 16%
10:00 +32°C° 0 mm 1 mps 737 mmHg 14%
11:00 +34°C° 0 mm 1 mps 737 mmHg 12%
12:00 +36°C° 0 mm 2 mps 736 mmHg 11%
13:00 +37°C° 0 mm 3 mps 736 mmHg 10%
14:00 +37°C° 0 mm 3 mps 735 mmHg 9%
15:00 +36°C° 0 mm 3 mps 735 mmHg 11%
16:00 +34°C° 0 mm 2 mps 734 mmHg 12%
17:00 +32°C° 0 mm 2 mps 734 mmHg 14%
18:00 +31°C° 0 mm 1 mps 735 mmHg 14%
19:00 +29°C° 0 mm 1 mps 735 mmHg 15%
20:00 +28°C° 0 mm 1 mps 736 mmHg 15%
21:00 +28°C° 0 mm 1 mps 736 mmHg 15%
22:00 +27°C° 0 mm 1 mps 736 mmHg 16%
23:00 +26°C° 0 mm 1 mps 736 mmHg 16%

Mañana, 21 Octubre, Miércoles

Tiempo Temperatura Precipitaciones Viento Presión Humedad
00:00 +26°C° 0 mm 1 mps 736 mmHg 17%
01:00 +25°C° 0 mm 1 mps 736 mmHg 18%
02:00 +25°C° 0 mm 1 mps 736 mmHg 19%
03:00 +25°C° 0 mm 1 mps 736 mmHg 20%
04:00 +24°C° 0 mm 1 mps 736 mmHg 21%
05:00 +24°C° 0 mm 1 mps 737 mmHg 21%
06:00 +25°C° 0 mm 1 mps 737 mmHg 22%
07:00 +26°C° 0 mm 1 mps 738 mmHg 22%
08:00 +27°C° 0 mm 1 mps 738 mmHg 23%
09:00 +30°C° 0 mm 1 mps 738 mmHg 20%
10:00 +32°C° 0 mm 1 mps 738 mmHg 17%
11:00 +34°C° 0 mm 1 mps 738 mmHg 14%
12:00 +35°C° 0 mm 1 mps 737 mmHg 12%
13:00 +34°C° 0 mm 0 mps 736 mmHg 11%
14:00 +35°C° 0 mm 0 mps 736 mmHg 9%
15:00 +36°C° 0 mm 1 mps 735 mmHg 11%
16:00 +34°C° 0 mm 1 mps 735 mmHg 12%
17:00 +32°C° 0 mm 2 mps 735 mmHg 13%
18:00 +31°C° 0 mm 2 mps 735 mmHg 15%
19:00 +30°C° 0 mm 2 mps 735 mmHg 16%
20:00 +29°C° 0 mm 2 mps 735 mmHg 17%
21:00 +28°C° 0 mm 2 mps 735 mmHg 20%
22:00 +27°C° 0 mm 2 mps 736 mmHg 22%
23:00 +27°C° 0 mm 2 mps 736 mmHg 24%

Pasado mañana, 22 Octubre, Jueves

Tiempo Temperatura Precipitaciones Viento Presión Humedad
00:00 +27°C° 0 mm 2 mps 735 mmHg 24%
01:00 +26°C° 0 mm 2 mps 735 mmHg 24%
02:00 +26°C° 0 mm 1 mps 735 mmHg 25%
03:00 +26°C° 0 mm 2 mps 735 mmHg 24%
04:00 +26°C° 0 mm 2 mps 735 mmHg 24%
05:00 +26°C° 0 mm 2 mps 735 mmHg 23%
06:00 +26°C° 0 mm 2 mps 736 mmHg 25%
07:00 +27°C° 0 mm 2 mps 736 mmHg 26%
08:00 +27°C° 0 mm 2 mps 737 mmHg 27%
09:00 +29°C° 0 mm 2 mps 737 mmHg 25%
10:00 +32°C° 0 mm 2 mps 737 mmHg 22%
11:00 +35°C° 0 mm 2 mps 737 mmHg 19%
12:00 +36°C° 0 mm 2 mps 736 mmHg 17%
13:00 +37°C° 0 mm 2 mps 735 mmHg 15%
14:00 +37°C° 0 mm 1 mps 735 mmHg 13%
15:00 +36°C° 0 mm 2 mps 734 mmHg 14%
16:00 +35°C° 0 mm 2 mps 734 mmHg 15%
17:00 +32°C° 0 mm 2 mps 734 mmHg 17%
18:00 +31°C° 0 mm 2 mps 734 mmHg 20%
19:00 +30°C° 0 mm 2 mps 735 mmHg 24%
20:00 +28°C° 0 mm 2 mps 735 mmHg 27%
21:00 +28°C° 0 mm 2 mps 735 mmHg 29%
22:00 +27°C° 0 mm 2 mps 735 mmHg 31%
23:00 +26°C° 0 mm 2 mps 736 mmHg 33%

23 Octubre, Viernes

Tiempo Temperatura Precipitaciones Viento Presión Humedad
00:00 +26°C° 0 mm 2 mps 736 mmHg 34%
01:00 +25°C° 0 mm 2 mps 736 mmHg 35%
02:00 +25°C° 0 mm 1 mps 736 mmHg 36%
03:00 +24°C° 0 mm 2 mps 736 mmHg 36%
04:00 +24°C° 0 mm 2 mps 736 mmHg 37%
05:00 +24°C° 0 mm 3 mps 736 mmHg 37%
06:00 +24°C° 0 mm 3 mps 736 mmHg 37%
07:00 +25°C° 0 mm 3 mps 737 mmHg 38%
08:00 +26°C° 0 mm 3 mps 737 mmHg 38%
09:00 +28°C° 0 mm 3 mps 737 mmHg 34%
10:00 +31°C° 0 mm 2 mps 737 mmHg 29%
11:00 +34°C° 0 mm 2 mps 737 mmHg 25%
12:00 +35°C° 0 mm 2 mps 737 mmHg 23%
13:00 +36°C° 0 mm 2 mps 736 mmHg 21%
14:00 +36°C° 0 mm 2 mps 736 mmHg 18%
15:00 +35°C° 0 mm 2 mps 735 mmHg 21%
16:00 +33°C° 0 mm 1 mps 735 mmHg 23%
17:00 +32°C° 0 mm 1 mps 735 mmHg 25%
18:00 +31°C° 0 mm 1 mps 735 mmHg 26%
19:00 +30°C° 0 mm 1 mps 736 mmHg 27%
20:00 +29°C° 0 mm 1 mps 736 mmHg 28%
21:00 +28°C° 0 mm 1 mps 736 mmHg 28%
22:00 +28°C° 0 mm 1 mps 736 mmHg 29%
23:00 +27°C° 0 mm 1 mps 736 mmHg 29%

24 Octubre, Sábado

Tiempo Temperatura Precipitaciones Viento Presión Humedad
00:00 +26°C° 0 mm 1 mps 736 mmHg 30%
01:00 +26°C° 0 mm 1 mps 736 mmHg 30%
02:00 +25°C° 0 mm 1 mps 736 mmHg 31%
03:00 +25°C° 0 mm 1 mps 736 mmHg 32%
04:00 +25°C° 0 mm 1 mps 736 mmHg 33%
05:00 +24°C° 0 mm 1 mps 736 mmHg 34%
06:00 +25°C° 0 mm 1 mps 737 mmHg 33%
07:00 +26°C° 0 mm 1 mps 737 mmHg 32%
08:00 +27°C° 0 mm 1 mps 738 mmHg 30%
09:00 +30°C° 0 mm 1 mps 738 mmHg 27%
10:00 +32°C° 0 mm 1 mps 738 mmHg 24%
11:00 +34°C° 0 mm 1 mps 738 mmHg 20%
12:00 +35°C° 0 mm 1 mps 737 mmHg 19%
13:00 +35°C° 0 mm 1 mps 736 mmHg 17%
14:00 +36°C° 0 mm 1 mps 736 mmHg 15%
15:00 +34°C° 0 mm 1 mps 736 mmHg 17%
16:00 +33°C° 0 mm 1 mps 736 mmHg 19%
17:00 +32°C° 0 mm 1 mps 735 mmHg 21%
18:00 +31°C° 0 mm 1 mps 736 mmHg 21%
19:00 +30°C° 0 mm 1 mps 736 mmHg 22%
20:00 +29°C° 0 mm 1 mps 737 mmHg 23%
21:00 +28°C° 0 mm 1 mps 737 mmHg 24%
22:00 +28°C° 0 mm 1 mps 737 mmHg 25%
23:00 +27°C° 0 mm 2 mps 737 mmHg 26%

25 Octubre, Domingo

Tiempo Temperatura Precipitaciones Viento Presión Humedad
00:00 +27°C° 0 mm 2 mps 737 mmHg 27%
01:00 +26°C° 0 mm 2 mps 737 mmHg 29%
02:00 +26°C° 0 mm 2 mps 737 mmHg 30%
03:00 +25°C° 0 mm 2 mps 737 mmHg 31%
04:00 +25°C° 0 mm 2 mps 737 mmHg 33%
05:00 +24°C° 0 mm 2 mps 737 mmHg 34%
06:00 +25°C° 0 mm 2 mps 738 mmHg 33%
07:00 +26°C° 0 mm 2 mps 738 mmHg 32%
08:00 +27°C° 0 mm 2 mps 739 mmHg 31%
09:00 +29°C° 0 mm 2 mps 738 mmHg 29%
10:00 +31°C° 0 mm 2 mps 738 mmHg 27%
11:00 +34°C° 0 mm 2 mps 738 mmHg 25%
12:00 +35°C° 0 mm 2 mps 738 mmHg 22%
13:00 +36°C° 0 mm 2 mps 737 mmHg 20%
14:00 +35°C° 0 mm 1 mps 736 mmHg 17%
15:00 +35°C° 0 mm 2 mps 736 mmHg 19%
16:00 +34°C° 0 mm 2 mps 736 mmHg 21%
17:00 +32°C° 0 mm 2 mps 736 mmHg 23%
18:00 +31°C° 0 mm 2 mps 736 mmHg 24%
19:00 +30°C° 0 mm 3 mps 736 mmHg 26%
20:00 +29°C° 0 mm 3 mps 737 mmHg 27%
21:00 +28°C° 0 mm 3 mps 737 mmHg 28%
22:00 +28°C° 0 mm 3 mps 737 mmHg 28%
23:00 +28°C° 0 mm 3 mps 737 mmHg 29%

26 Octubre, Lunes

Tiempo Temperatura Precipitaciones Viento Presión Humedad
00:00 +27°C° 0 mm 3 mps 737 mmHg 30%
01:00 +27°C° 0 mm 2 mps 737 mmHg 32%
02:00 +26°C° 0 mm 2 mps 737 mmHg 34%
03:00 +26°C° 0 mm 2 mps 737 mmHg 36%
04:00 +26°C° 0 mm 2 mps 738 mmHg 38%
05:00 +25°C° 0 mm 1 mps 738 mmHg 40%
06:00 +25°C° 0 mm 3 mps 738 mmHg 39%
07:00 +26°C° 0 mm 4 mps 739 mmHg 38%
08:00 +26°C° 0 mm 6 mps 740 mmHg 38%
09:00 +26°C° 0 mm 6 mps 740 mmHg 38%
10:00 +27°C° 0 mm 6 mps 740 mmHg 39%
11:00 +27°C° 0 mm 5 mps 740 mmHg 40%
12:00 +27°C° 0 mm 5 mps 740 mmHg 42%
13:00 +27°C° 0 mm 5 mps 739 mmHg 44%
14:00 +26°C° 0 mm 5 mps 739 mmHg 46%
15:00 +26°C° 0 mm 4 mps 738 mmHg 49%
16:00 +25°C° 0 mm 3 mps 738 mmHg 51%
17:00 +25°C° 0 mm 3 mps 738 mmHg 54%
18:00 +24°C° 0 mm 3 mps 738 mmHg 60%
19:00 +23°C° 0 mm 2 mps 739 mmHg 66%
20:00 +21°C° 0 mm 2 mps 739 mmHg 71%
21:00 +21°C° 0 mm 2 mps 739 mmHg 70%
22:00 +21°C° 0 mm 2 mps 739 mmHg 69%
23:00 +20°C° 0 mm 2 mps 739 mmHg 67%
Mostrar más

Necesitamos Su Consentimiento

Meteoprog y nuestros Proveedores de Servicios pueden almacenar y acceder a sus datos personales como cookies, identificadores de dispositivo u otras tecnologías similares de su dispositivo y procesar dichos datos para personalizar contenido y anuncios, además de ofrecer funciones de redes sociales y analizar el tráfico.

  • Almacenar y/o acceder a información en su dispositivo

    Se puede almacenar o acceder a cookies, identificadores de dispositivo u otra información de su dispositivo para los fines anteriormente indicados.

  • Anuncios y contenido personalizados, medición de anuncios y contenido, percepciones del público, y desarrollo de productos

    Los anuncios y el contenido pueden personalizarse en base a su perfil. Se pueden añadir más datos para personalizar mejor los anuncios y contenidos. Se puede medir el rendimiento de los anuncios y contenidos. Se puede obtener la percepción sobre el público que ha visto los anuncios y contenidos. Dichos datos pueden usarse para desarrollar o mejorar la experiencia del usuario, sistemas y software.

Al hacer clic en ‘Estoy De Acuerdo’ usted permitirá el uso de las cookies, identificadores de dispositivo, balizas web u otras tecnologías similares indicadas. Su configuración puede cambiarse desde el navegador de su dispositivo.

Para ciertos fines, los intereses legítimos pueden ser considerados por encima del consentimiento. Puede leer más sobre ello en nuestra Política de Privacidad y Cookies.